Current Weather Conditions: station 63110

sailwx.info

Last reported at 2018-Feb-10 04:28 UTC.
Time now 2018-May-23 03:40 UTC

Location: N 59°30' E 001°30'.
View on Google Maps.

See reports from other nearby stations

  
Tides and Currents Weather Stations Pressure Air Temp Water Temp Dewpoint Dewpoint Depression Visibility Wind Speed Wind Dir Waves Ship Positions
date/time (UTC)wind fromknots sea level pressurealtimeterstation pressurevisibilityair tempwater tempwave heightnotes
2018-May-23 02:00 010 13 10.8 8.4 2.0
2018-May-23 01:00 010 14 10.8 8.6 2.1
2018-May-23 00:00 020 14 10.8 8.6 2.2
2018-May-22 23:00 010 17 10.8 8.5 2.0
2018-May-22 22:00 020 17 10.8 8.6 2.0
2018-May-22 21:00 010 18 10.8 8.6 2.1
2018-May-22 20:00 020 17 10.8 8.8 2.1
2018-May-22 19:00 030 18 10.8 9.4 1.9
2018-May-22 18:00 020 19 10.8 8.9 2.1
2018-May-22 17:00 030 18 10.8 9.0 2.0
2018-May-22 16:00 020 19 10.8 9.0 2.0
2018-May-22 15:00 020 20 10.8 8.9 2.0
2018-May-22 14:00 030 20 10.8 9.1 1.9
2018-May-22 13:00 030 20 10.8 9.0
2018-May-22 12:00 020 20 10.8 8.8 1.8
2018-May-22 11:00 030 20 10.8 8.9
2018-May-22 10:00 030 20 5.4 8.8 1.9
2018-May-22 09:00 030 19 5.4 9.3 2.0
2018-May-22 08:00 020 20 5.4 8.4 1.9
2018-May-22 07:00 020 20 5.4 8.2 1.9
2018-May-22 06:00 020 21 5.4 8.1 1.8
2018-May-22 05:00 010 20 2.2 8.4
2018-May-22 04:00
2018-May-22 03:00
2018-May-22 02:00
2018-May-22 01:00
2018-May-22 00:00
2018-May-21 23:00
2018-May-21 22:00
2018-May-21 21:00
2018-May-21 20:00 210 6 0.3 8.8 1.7
2018-May-21 19:00 220 8 2.2 8.8 1.6
2018-May-21 18:00 200 11 0.3 9.1 1.7
2018-May-21 17:00 190 8 0.3 9.2 1.7
2018-May-21 16:00 180 9 5.4 9.3 1.7
2018-May-21 15:00 190 9 10.8 9.0 1.6
2018-May-21 14:00 180 14 10.8 9.9 1.7
2018-May-21 13:00 170 15 10.8 9.6 1.9
2018-May-21 12:00 160 14 5.4 9.3 2.0
2018-May-21 11:00 170 14 1.1 8.7 2.0
2018-May-21 10:00 170 17 0.3 8.4 2.2
2018-May-21 09:00 170 18 0.5 8.3 2.1
2018-May-21 08:00 180 17 2.2 8.2 2.2
2018-May-21 07:00 170 20 2.2 8.3 2.3
2018-May-21 06:00 170 20 2.2 8.3 2.3
2018-May-21 05:00 180 19 2.2 8.4 2.3
2018-May-21 04:00 180 19 2.2 8.4 2.4
2018-May-21 03:00 180 19 1.1 8.6 2.3